| time (UTC) | temp F | wind direction | speed MPH | gust MPH | rain 1hr in | rain 24hr in | rain mn in | humidity % | barometer mb |
| 20260509183537 | 52 | 114 | 2.0 | 7.0 | 0.01 | 0.22 | 0.22 | 79 | 1009.5 |
| 20260509182515 | 52 | 145 | 3.0 | 6.0 | 0.02 | 0.22 | 0.22 | 79 | 1009.6 |
| 20260509181516 | 52 | 92 | 2.0 | 7.0 | 0.02 | 0.22 | 0.22 | 79 | 1009.7 |
| 20260509180517 | 52 | 80 | 2.0 | 4.0 | 0.02 | 0.22 | 0.22 | 78 | 1009.8 |
| 20260509175516 | 52 | 115 | 2.0 | 6.0 | 0.02 | 0.22 | 0.22 | 78 | 1009.8 |
| 20260509174516 | 52 | 72 | 2.0 | 4.0 | 0.02 | 0.21 | 0.21 | 78 | 1009.8 |
| 20260509173517 | 52 | 87 | 2.0 | 5.0 | 0.02 | 0.21 | 0.21 | 78 | 1009.9 |
| 20260509172516 | 52 | 102 | 3.0 | 7.0 | 0.02 | 0.20 | 0.20 | 79 | 1009.9 |
| 20260509171517 | 52 | 88 | 2.0 | 5.0 | 0.02 | 0.20 | 0.20 | 79 | 1010.0 |
| 20260509170517 | 52 | 109 | 3.0 | 6.0 | 0.02 | 0.20 | 0.20 | 79 | 1010.1 |
| 20260509165518 | 51 | 92 | 2.0 | 5.0 | 0.02 | 0.20 | 0.20 | 80 | 1010.2 |
| 20260509164515 | 51 | 104 | 3.0 | 6.0 | 0.02 | 0.19 | 0.19 | 79 | 1010.3 |
| 20260509163536 | 51 | 83 | 3.0 | 7.0 | 0.02 | 0.19 | 0.19 | 79 | 1010.5 |
| 20260509162517 | 51 | 100 | 3.0 | 5.0 | 0.03 | 0.19 | 0.19 | 80 | 1010.6 |
| 20260509161516 | 51 | 73 | 2.0 | 5.0 | 0.02 | 0.18 | 0.18 | 80 | 1010.8 |
| 20260509160517 | 51 | 96 | 2.0 | 6.0 | 0.04 | 0.18 | 0.18 | 80 | 1010.9 |
| 20260509155517 | 50 | 90 | 3.0 | 6.0 | 0.04 | 0.17 | 0.17 | 80 | 1011.0 |
| 20260509154516 | 50 | 99 | 2.0 | 7.0 | 0.05 | 0.17 | 0.17 | 80 | 1011.1 |
| 20260509153517 | 50 | 98 | 3.0 | 7.0 | 0.05 | 0.17 | 0.17 | 81 | 1011.3 |
| 20260509152516 | 50 | 94 | 2.0 | 7.0 | 0.06 | 0.16 | 0.16 | 80 | 1011.4 |
| 20260509151537 | 49 | 93 | 3.0 | 7.0 | 0.06 | 0.16 | 0.16 | 79 | 1011.4 |
| 20260509150517 | 49 | 108 | 2.0 | 6.0 | 0.06 | 0.14 | 0.14 | 79 | 1011.4 |
| 20260509145516 | 49 | 106 | 3.0 | 8.0 | 0.06 | 0.13 | 0.13 | 80 | 1011.5 |
| 20260509144517 | 49 | 92 | 2.0 | 4.0 | 0.06 | 0.13 | 0.13 | 80 | 1011.5 |
| 20260509143648 | 49 | 90 | 2.0 | 4.0 | 0.06 | 0.11 | 0.11 | 79 | 1011.5 |
| 20260509142516 | 49 | 117 | 2.0 | 5.0 | 0.06 | 0.10 | 0.10 | 78 | 1011.5 |
| 20260509141516 | 48 | 105 | 2.0 | 4.0 | 0.06 | 0.09 | 0.09 | 79 | 1011.4 |
| 20260509140824 | 48 | 90 | 1.0 | 5.0 | 0.05 | 0.08 | 0.08 | 77 | 1011.4 |
| 20260509140016 | 48 | 85 | 2.0 | 4.0 | 0.05 | 0.08 | 0.08 | 77 | 1011.5 |
| 20260509135017 | 48 | 82 | 1.0 | 5.0 | 0.05 | 0.07 | 0.07 | 76 | 1011.4 |
| 20260509134016 | 48 | 45 | 1.0 | 2.0 | 0.05 | 0.06 | 0.06 | 76 | 1011.5 |
| 20260509133016 | 47 | 52 | 1.0 | 7.0 | 0.03 | 0.05 | 0.05 | 77 | 1011.5 |
| 20260509132017 | 47 | 86 | 2.0 | 8.0 | 0.03 | 0.04 | 0.04 | 76 | 1011.5 |
| 20260509131017 | 47 | 80 | 2.0 | 4.0 | 0.02 | 0.03 | 0.03 | 76 | 1011.6 |
| 20260509130016 | 47 | 82 | 1.0 | 3.0 | 0.03 | 0.03 | 0.03 | 76 | 1011.6 |
| 20260509125036 | 46 | 84 | 2.0 | 4.0 | 0.02 | 0.02 | 0.02 | 77 | 1011.6 |
| 20260509124017 | 46 | 91 | 2.0 | 5.0 | 0.02 | 0.02 | 0.02 | 76 | 1011.8 |
| 20260509123015 | 46 | 87 | 2.0 | 4.0 | 0.02 | 0.02 | 0.02 | 76 | 1011.8 |
| 20260509122036 | 46 | 72 | 2.0 | 3.0 | 0.01 | 0.01 | 0.01 | 76 | 1011.8 |
| 20260509121017 | 45 | 75 | 3.0 | 5.0 | 0.01 | 0.01 | 0.01 | 76 | 1011.9 |
| 20260509120017 | 45 | 76 | 2.0 | 4.0 | 0.00 | 0.00 | 0.00 | 74 | 1011.9 |
| 20260509115036 | 45 | 76 | 2.0 | 3.0 | 0.00 | 0.00 | 0.00 | 74 | 1012.0 |
| 20260509114017 | 45 | 79 | 1.0 | 4.0 | 0.00 | 0.00 | 0.00 | 72 | 1012.0 |
| 20260509113017 | 44 | 90 | 1.0 | 3.0 | 0.00 | 0.00 | 0.00 | 72 | 1012.0 |
| 20260509112016 | 44 | 83 | 1.0 | 3.0 | 0.00 | 0.00 | 0.00 | 70 | 1012.0 |
| 20260509111017 | 44 | 86 | 1.0 | 2.0 | 0.00 | 0.00 | 0.00 | 69 | 1011.9 |
| 20260509110016 | 44 | 88 | 0.0 | 2.0 | 0.00 | 0.00 | 0.00 | 69 | 1011.8 |
| 20260509105016 | 43 | 70 | 1.0 | 3.0 | 0.00 | 0.00 | 0.00 | 69 | 1011.7 |
| 20260509104037 | 43 | 87 | 1.0 | 4.0 | 0.00 | 0.00 | 0.00 | 70 | 1011.7 |
| 20260509103016 | 43 | 45 | 1.0 | 2.0 | 0.00 | 0.00 | 0.00 | 69 | 1011.8 |
| 20260509102352 | 42 | 0.0 | 2.0 | 0.00 | 0.00 | 0.00 | 69 | 1012.0 | |
| 20260509101516 | 42 | 45 | 0.0 | 1.0 | 0.00 | 0.00 | 0.00 | 68 | 1012.0 |
| 20260509100517 | 42 | 0.0 | 1.0 | 0.00 | 0.00 | 0.00 | 68 | 1012.0 | |
| 20260509095536 | 41 | 90 | 0.0 | 2.0 | 0.00 | 0.00 | 0.00 | 69 | 1011.9 |
| 20260509094516 | 42 | 90 | 0.0 | 1.0 | 0.00 | 0.00 | 0.00 | 68 | 1012.0 |
| 20260509093517 | 42 | 90 | 1.0 | 1.0 | 0.00 | 0.00 | 0.00 | 67 | 1012.1 |
| 20260509092518 | 42 | 90 | 0.0 | 1.0 | 0.00 | 0.00 | 0.00 | 66 | 1012.2 |
| 20260509091656 | 42 | 0.0 | 0.0 | 0.00 | 0.00 | 0.00 | 67 | 1012.3 | |
| 20260509091016 | 42 | 0.0 | 1.0 | 0.00 | 0.00 | 0.00 | 66 | 1012.3 | |
| 20260509090016 | 42 | 0.0 | 1.0 | 0.00 | 0.00 | 0.00 | 66 | 1012.2 | |
| 20260509085017 | 42 | 90 | 0.0 | 1.0 | 0.00 | 0.00 | 0.00 | 65 | 1012.2 |
| 20260509084016 | 42 | 90 | 0.0 | 1.0 | 0.00 | 0.00 | 0.00 | 66 | 1012.1 |
| 20260509083057 | 42 | 89 | 0.0 | 1.0 | 0.00 | 0.00 | 0.00 | 65 | 1012.0 |
| 20260509082016 | 41 | 0.0 | 0.0 | 0.00 | 0.00 | 0.00 | 66 | 1011.9 | |
| 20260509081017 | 41 | 0.0 | 0.0 | 0.00 | 0.00 | 0.00 | 65 | 1011.8 | |
| 20260509080015 | 41 | 0.0 | 0.0 | 0.00 | 0.00 | 0.00 | 64 | 1011.8 | |
| 20260509075036 | 41 | 0.0 | 0.0 | 0.00 | 0.00 | 0.00 | 64 | 1011.8 | |
| 20260509074017 | 41 | 0.0 | 0.0 | 0.00 | 0.00 | 0.00 | 63 | 1011.8 | |
| 20260509073018 | 41 | 0.0 | 0.0 | 0.00 | 0.00 | 0.00 | 64 | 1011.8 | |
| 20260509072018 | 41 | 0.0 | 0.0 | 0.00 | 0.00 | 0.00 | 61 | 1011.8 | |
| 20260509071017 | 41 | 0.0 | 1.0 | 0.00 | 0.00 | 0.00 | 62 | 1011.8 | |
| 20260509070015 | 41 | 0.0 | 0.0 | 0.00 | 0.00 | 0.00 | 62 | 1011.9 | |
| 20260509065016 | 42 | 0.0 | 0.0 | 0.00 | 0.00 | 0.00 | 60 | 1011.9 | |
| 20260509064037 | 42 | 0.0 | 0.0 | 0.00 | 0.00 | 0.00 | 62 | 1011.9 | |
| 20260509063035 | 43 | 0.0 | 0.0 | 0.00 | 0.00 | 0.00 | 61 | 1012.1 | |
| 20260509062016 | 44 | 0.0 | 0.0 | 0.00 | 0.00 | 0.00 | 62 | 1012.2 | |
| 20260509061017 | 44 | 0.0 | 0.0 | 0.00 | 0.00 | 0.00 | 60 | 1012.2 | |
| 20260509060016 | 44 | 180 | 0.0 | 1.0 | 0.00 | 0.00 | 0.00 | 57 | 1012.3 |
| 20260509055016 | 44 | 180 | 1.0 | 1.0 | 0.00 | 0.00 | 0.00 | 59 | 1012.3 |
| 20260509054057 | 44 | 180 | 0.0 | 1.0 | 0.00 | 0.00 | 0.00 | 59 | 1012.3 |
| 20260509053321 | 45 | 0.0 | 0.0 | 0.00 | 0.00 | 0.00 | 63 | 1012.4 | |
| 20260509052517 | 45 | 0.0 | 0.0 | 0.00 | 0.00 | 0.00 | 62 | 1012.4 | |
| 20260509051516 | 45 | 1 | 0.0 | 1.0 | 0.00 | 0.00 | 0.00 | 63 | 1012.5 |
| 20260509050517 | 44 | 202 | 0.0 | 1.0 | 0.00 | 0.00 | 0.00 | 64 | 1012.5 |
| 20260509045516 | 44 | 202 | 1.0 | 1.0 | 0.00 | 0.00 | 0.00 | 63 | 1012.5 |
| 20260509044537 | 44 | 0.0 | 1.0 | 0.00 | 0.00 | 0.00 | 63 | 1012.4 | |
| 20260509043516 | 44 | 62 | 1.0 | 2.0 | 0.00 | 0.00 | 0.00 | 60 | 1012.3 |
| 20260509042610 | 43 | 0.0 | 1.0 | 0.00 | 0.00 | 0.00 | 61 | 1012.2 | |
| 20260509042016 | 43 | 187 | 0.0 | 2.0 | 0.00 | 0.00 | 0.00 | 60 | 1012.1 |
| 20260509041017 | 43 | 90 | 0.0 | 1.0 | 0.00 | 0.00 | 0.00 | 60 | 1012.1 |
| 20260509040016 | 43 | 225 | 0.0 | 1.0 | 0.00 | 0.00 | 0.00 | 60 | 1012.0 |
| 20260509035017 | 43 | 136 | 0.0 | 2.0 | 0.00 | 0.00 | 0.00 | 60 | 1012.0 |
| 20260509034017 | 43 | 90 | 1.0 | 1.0 | 0.00 | 0.00 | 0.00 | 60 | 1012.1 |
| 20260509033036 | 43 | 89 | 1.0 | 2.0 | 0.00 | 0.00 | 0.00 | 59 | 1012.1 |
| 20260509032017 | 44 | 130 | 1.0 | 3.0 | 0.00 | 0.00 | 0.00 | 59 | 1012.1 |
| 20260509031016 | 44 | 202 | 2.0 | 3.0 | 0.00 | 0.00 | 0.00 | 59 | 1012.1 |
| 20260509030017 | 44 | 183 | 1.0 | 3.0 | 0.00 | 0.00 | 0.00 | 58 | 1012.2 |
| 20260509025015 | 44 | 202 | 2.0 | 3.0 | 0.00 | 0.00 | 0.00 | 59 | 1012.2 |
| 20260509024016 | 45 | 202 | 2.0 | 3.0 | 0.00 | 0.00 | 0.00 | 58 | 1012.2 |
| 20260509023037 | 45 | 204 | 2.0 | 4.0 | 0.00 | 0.00 | 0.00 | 58 | 1012.1 |
| 20260509022016 | 45 | 195 | 2.0 | 4.0 | 0.00 | 0.00 | 0.00 | 57 | 1011.9 |
| 20260509021017 | 45 | 208 | 2.0 | 3.0 | 0.00 | 0.00 | 0.00 | 56 | 1011.8 |
| 20260509020017 | 45 | 199 | 2.0 | 3.0 | 0.00 | 0.00 | 0.00 | 56 | 1011.8 |
| 20260509015016 | 46 | 199 | 2.0 | 3.0 | 0.00 | 0.00 | 0.00 | 56 | 1011.7 |
| 20260509014017 | 46 | 199 | 2.0 | 3.0 | 0.00 | 0.00 | 0.00 | 55 | 1011.5 |
| 20260509013017 | 46 | 210 | 2.0 | 4.0 | 0.00 | 0.00 | 0.00 | 54 | 1011.4 |
| 20260509012016 | 46 | 193 | 2.0 | 5.0 | 0.00 | 0.00 | 0.00 | 54 | 1011.2 |
| 20260509011017 | 47 | 189 | 2.0 | 4.0 | 0.00 | 0.00 | 0.00 | 54 | 1011.1 |
| 20260509010036 | 47 | 193 | 2.0 | 3.0 | 0.00 | 0.00 | 0.00 | 52 | 1011.0 |
| 20260509005036 | 47 | 198 | 2.0 | 4.0 | 0.00 | 0.00 | 0.00 | 52 | 1010.7 |
| 20260509004017 | 48 | 192 | 2.0 | 4.0 | 0.00 | 0.00 | 0.00 | 51 | 1010.6 |
| 20260509003016 | 49 | 210 | 2.0 | 3.0 | 0.00 | 0.00 | 0.00 | 50 | 1010.5 |
| 20260509002017 | 50 | 187 | 2.0 | 2.0 | 0.00 | 0.00 | 0.00 | 49 | 1010.4 |
| 20260509001015 | 51 | 182 | 2.0 | 4.0 | 0.00 | 0.00 | 0.00 | 46 | 1010.3 |
| 20260509000016 | 53 | 198 | 1.0 | 4.0 | 0.00 | 0.00 | 0.00 | 45 | 1010.3 |
| 20260508235017 | 54 | 296 | 2.0 | 6.0 | 0.00 | 0.00 | 0.00 | 44 | 1010.3 |
| 20260508234018 | 55 | 293 | 3.0 | 9.0 | 0.00 | 0.00 | 0.00 | 42 | 1010.2 |
| 20260508233016 | 57 | 217 | 1.0 | 9.0 | 0.00 | 0.00 | 0.00 | 41 | 1010.2 |
| 20260508232017 | 57 | 311 | 2.0 | 9.0 | 0.00 | 0.00 | 0.00 | 41 | 1010.1 |
| 20260508231015 | 57 | 325 | 4.0 | 12.0 | 0.00 | 0.00 | 0.00 | 40 | 1010.1 |
| 20260508230056 | 58 | 277 | 2.0 | 8.0 | 0.00 | 0.00 | 0.00 | 42 | 1010.1 |
| 20260508225017 | 57 | 332 | 4.0 | 10.0 | 0.00 | 0.00 | 0.00 | 41 | 1010.0 |
| 20260508224016 | 57 | 316 | 5.0 | 9.0 | 0.00 | 0.00 | 0.00 | 41 | 1010.0 |
| 20260508223017 | 56 | 356 | 2.0 | 12.0 | 0.00 | 0.00 | 0.00 | 43 | 1009.9 |
| 20260508222017 | 56 | 318 | 6.0 | 13.0 | 0.00 | 0.00 | 0.00 | 42 | 1009.9 |
| 20260508221016 | 57 | 307 | 5.0 | 11.0 | 0.00 | 0.00 | 0.00 | 41 | 1010.0 |
| 20260508220016 | 56 | 318 | 5.0 | 16.0 | 0.00 | 0.00 | 0.00 | 41 | 1010.0 |
| 20260508215057 | 57 | 0 | 4.0 | 12.0 | 0.00 | 0.00 | 0.00 | 42 | 1010.0 |
| 20260508214516 | 58 | 319 | 4.0 | 16.0 | 0.00 | 0.00 | 0.00 | 42 | 1010.1 |
| 20260508213613 | 58 | 315 | 5.0 | 11.0 | 0.00 | 0.00 | 0.00 | 39 | 1010.0 |
| 20260508213036 | 58 | 325 | 6.0 | 18.0 | 0.00 | 0.00 | 0.00 | 39 | 1010.0 |
| 20260508212037 | 59 | 326 | 3.0 | 11.0 | 0.00 | 0.00 | 0.00 | 39 | 1009.9 |
| 20260508211018 | 60 | 326 | 8.0 | 19.0 | 0.00 | 0.00 | 0.00 | 37 | 1009.9 |
| 20260508210037 | 60 | 322 | 6.0 | 18.0 | 0.00 | 0.00 | 0.00 | 36 | 1009.9 |
| 20260508205016 | 60 | 329 | 6.0 | 17.0 | 0.00 | 0.00 | 0.00 | 39 | 1009.8 |
| 20260508204017 | 60 | 321 | 6.0 | 13.0 | 0.00 | 0.00 | 0.00 | 39 | 1009.8 |
| 20260508203016 | 60 | 319 | 8.0 | 16.0 | 0.00 | 0.00 | 0.00 | 39 | 1009.8 |
| 20260508202017 | 59 | 243 | 4.0 | 17.0 | 0.00 | 0.00 | 0.00 | 41 | 1009.8 |
| 20260508201017 | 59 | 330 | 8.0 | 20.0 | 0.00 | 0.00 | 0.00 | 40 | 1009.8 |
| 20260508200016 | 60 | 318 | 5.0 | 17.0 | 0.00 | 0.00 | 0.00 | 39 | 1009.8 |
| 20260508195017 | 60 | 329 | 8.0 | 17.0 | 0.00 | 0.00 | 0.00 | 40 | 1009.9 |
| 20260508194016 | 60 | 323 | 7.0 | 15.0 | 0.00 | 0.00 | 0.00 | 40 | 1009.9 |
| 20260508193016 | 59 | 327 | 6.0 | 15.0 | 0.00 | 0.00 | 0.00 | 41 | 1010.0 |
| 20260508192017 | 59 | 329 | 5.0 | 15.0 | 0.00 | 0.00 | 0.00 | 41 | 1010.0 |
| 20260508191015 | 59 | 310 | 5.0 | 12.0 | 0.00 | 0.00 | 0.00 | 40 | 1010.0 |
| 20260508190016 | 59 | 330 | 4.0 | 14.0 | 0.00 | 0.00 | 0.00 | 40 | 1010.0 |
| 20260508185017 | 60 | 321 | 7.0 | 17.0 | 0.00 | 0.00 | 0.00 | 38 | 1010.2 |